Time,TemperatureF,DewpointF,PressureIn,WindDirection,WindDirectionDegrees,WindSpeedMPH,WindSpeedGustMPH,Humidity,HourlyPrecipIn,Conditions,Clouds,dailyrainin,SoftwareType,DateUTC
2013-07-26 00:02:00,67.0,66.0,29.98,North,0,0.0,0.0,96,0.00,,,0.07,,2013-07-26 04:02:00,
2013-07-26 00:12:00,66.0,65.0,29.98,North,0,0.0,0.0,96,0.00,,,0.07,,2013-07-26 04:12:00,
2013-07-26 00:23:00,66.0,65.0,29.98,North,0,0.0,0.0,95,0.00,,,0.07,,2013-07-26 04:23:00,
2013-07-26 00:32:00,66.0,65.0,29.98,North,0,0.0,0.0,96,0.00,,,0.07,,2013-07-26 04:32:00,
2013-07-26 00:53:00,66.0,65.0,29.98,North,0,0.0,0.0,96,0.00,,,0.07,,2013-07-26 04:53:00,
2013-07-26 01:02:00,65.0,64.0,29.98,North,0,0.0,0.0,96,0.00,,,0.07,,2013-07-26 05:02:00,
2013-07-26 01:12:00,65.0,64.0,29.98,North,0,0.0,0.0,96,0.00,,,0.07,,2013-07-26 05:12:00,
2013-07-26 01:22:00,65.0,64.0,29.98,North,0,0.0,0.0,96,0.00,,,0.07,,2013-07-26 05:22:00,
2013-07-26 01:52:00,64.0,63.0,29.99,North,0,0.0,0.0,96,0.00,,,0.07,,2013-07-26 05:52:00,
2013-07-26 02:02:00,64.0,63.0,29.98,North,0,0.0,0.0,97,0.00,,,0.07,,2013-07-26 06:02:00,
2013-07-26 02:12:00,64.0,63.0,29.98,North,0,0.0,0.0,97,0.00,,,0.07,,2013-07-26 06:12:00,
2013-07-26 02:22:00,63.0,62.0,29.97,North,0,0.0,0.0,96,0.00,,,0.07,,2013-07-26 06:22:00,
2013-07-26 02:43:00,63.0,62.0,29.97,North,0,0.0,0.0,97,0.00,,,0.07,,2013-07-26 06:43:00,
2013-07-26 02:52:00,63.0,62.0,29.97,North,0,0.0,0.0,97,0.00,,,0.07,,2013-07-26 06:52:00,
2013-07-26 03:02:00,63.0,62.0,29.98,North,0,0.0,0.0,96,0.00,,,0.07,,2013-07-26 07:02:00,
2013-07-26 03:12:00,63.0,62.0,29.98,North,0,0.0,0.0,96,0.00,,,0.07,,2013-07-26 07:12:00,
2013-07-26 03:22:00,62.0,61.0,29.97,North,0,0.0,0.0,97,0.00,,,0.07,,2013-07-26 07:22:00,
2013-07-26 03:32:00,62.0,61.0,29.97,North,0,0.0,0.0,97,0.00,,,0.07,,2013-07-26 07:32:00,
2013-07-26 03:43:00,62.0,61.0,29.98,North,0,0.0,0.0,97,0.00,,,0.07,,2013-07-26 07:43:00,
2013-07-26 03:53:00,62.0,61.0,29.98,North,0,0.0,0.0,97,0.00,,,0.05,,2013-07-26 07:53:00,
2013-07-26 04:02:00,62.0,61.0,29.98,North,0,0.0,0.0,97,0.00,,,0.03,,2013-07-26 08:02:00,
2013-07-26 04:12:00,62.0,61.0,29.98,North,0,0.0,0.0,97,0.00,,,0.03,,2013-07-26 08:12:00,
2013-07-26 04:22:00,62.0,61.0,29.98,North,0,0.0,0.0,97,0.00,,,0.02,,2013-07-26 08:22:00,
2013-07-26 04:32:00,62.0,61.0,29.98,North,0,0.0,0.0,97,0.00,,,0.02,,2013-07-26 08:32:00,
2013-07-26 04:44:00,61.0,60.0,29.99,North,0,0.0,0.0,97,0.00,,,0.01,,2013-07-26 08:44:00,
2013-07-26 04:52:00,61.0,60.0,29.99,North,0,0.0,0.0,97,0.00,,,0.01,,2013-07-26 08:52:00,
2013-07-26 05:02:00,61.0,60.0,29.98,North,0,0.0,0.0,97,0.00,,,0.01,,2013-07-26 09:02:00,
2013-07-26 05:12:00,61.0,60.0,29.98,North,0,0.0,0.0,97,0.00,,,0.01,,2013-07-26 09:12:00,
2013-07-26 05:22:00,61.0,60.0,29.99,North,0,0.0,0.0,97,0.00,,,0.01,,2013-07-26 09:22:00,
2013-07-26 05:32:00,61.0,60.0,30.00,North,0,0.0,0.0,97,0.00,,,0.01,,2013-07-26 09:32:00,
2013-07-26 05:43:00,61.0,60.0,30.00,North,0,0.0,0.0,97,0.00,,,0.01,,2013-07-26 09:43:00,
2013-07-26 05:52:00,61.0,60.0,30.01,North,0,0.0,0.0,98,0.00,,,0.01,,2013-07-26 09:52:00,
2013-07-26 06:02:00,61.0,60.0,30.01,North,0,0.0,0.0,98,0.00,,,0.01,,2013-07-26 10:02:00,
2013-07-26 06:12:00,61.0,60.0,30.02,North,0,0.0,0.0,97,0.00,,,0.01,,2013-07-26 10:12:00,
2013-07-26 06:22:00,61.0,60.0,30.02,North,0,0.0,0.0,97,0.00,,,0.01,,2013-07-26 10:22:00,
2013-07-26 06:52:00,60.0,59.0,30.03,North,0,0.0,0.0,97,0.00,,,0.01,,2013-07-26 10:52:00,
2013-07-26 07:12:00,60.0,59.0,30.03,North,0,0.0,0.0,98,0.00,,,0.01,,2013-07-26 11:12:00,
2013-07-26 07:22:00,60.0,59.0,30.03,North,0,0.0,0.0,98,0.00,,,0.01,,2013-07-26 11:22:00,
2013-07-26 07:43:00,61.0,60.0,30.02,North,0,0.0,0.0,98,0.00,,,0.01,,2013-07-26 11:43:00,
2013-07-26 07:52:00,61.0,60.0,30.02,North,0,0.0,0.0,98,0.00,,,0.01,,2013-07-26 11:52:00,
2013-07-26 08:02:00,61.0,60.0,30.02,North,0,0.0,0.0,98,0.00,,,0.01,,2013-07-26 12:02:00,
2013-07-26 08:12:00,62.0,61.0,30.03,North,0,0.0,0.0,98,0.00,,,0.01,,2013-07-26 12:12:00,
2013-07-26 08:22:00,63.0,62.0,30.03,North,0,0.0,0.0,98,0.00,,,0.01,,2013-07-26 12:22:00,
2013-07-26 08:43:00,65.0,64.0,30.04,North,0,0.0,0.0,98,0.00,,,0.01,,2013-07-26 12:43:00,
2013-07-26 08:53:00,65.0,64.0,30.04,North,0,0.0,0.0,98,0.00,,,0.01,,2013-07-26 12:53:00,
2013-07-26 09:02:00,65.0,64.0,30.04,North,0,0.0,0.0,98,0.00,,,0.01,,2013-07-26 13:02:00,
2013-07-26 09:23:00,66.0,65.0,30.05,North,0,0.0,0.0,98,0.00,,,0.00,,2013-07-26 13:23:00,
2013-07-26 09:43:00,72.0,66.0,30.05,North,0,0.0,3.0,81,0.00,,,0.00,,2013-07-26 13:43:00,
2013-07-26 10:03:00,73.0,65.0,30.05,North,0,0.0,4.0,76,0.00,,,0.00,,2013-07-26 14:03:00,
2013-07-26 10:22:00,75.0,64.0,30.06,North,0,0.0,1.0,69,0.00,,,0.00,,2013-07-26 14:22:00,
2013-07-26 10:33:00,76.0,65.0,30.05,North,0,0.0,3.0,68,0.00,,,0.00,,2013-07-26 14:33:00,
2013-07-26 10:43:00,77.0,65.0,30.06,North,0,0.0,3.0,66,0.00,,,0.00,,2013-07-26 14:43:00,
2013-07-26 10:53:00,77.0,65.0,30.06,North,0,0.0,3.0,66,0.00,,,0.00,,2013-07-26 14:53:00,
2013-07-26 11:03:00,78.0,64.0,30.06,North,0,0.0,4.0,62,0.00,,,0.00,,2013-07-26 15:03:00,
2013-07-26 11:12:00,78.0,64.0,30.06,North,0,0.0,4.0,62,0.00,,,0.00,,2013-07-26 15:12:00,
2013-07-26 11:22:00,79.0,65.0,30.06,South,191,1.0,5.0,63,0.00,,,0.00,,2013-07-26 15:22:00,
2013-07-26 11:33:00,79.0,63.0,30.05,North,0,0.0,2.0,59,0.00,,,0.00,,2013-07-26 15:33:00,
2013-07-26 11:43:00,79.0,63.0,30.05,North,0,0.0,2.0,59,0.00,,,0.00,,2013-07-26 15:43:00,
2013-07-26 11:53:00,80.0,64.0,30.05,North,0,0.0,2.0,58,0.00,,,0.00,,2013-07-26 15:53:00,
2013-07-26 12:03:00,80.0,64.0,30.05,North,0,0.0,2.0,58,0.00,,,0.00,,2013-07-26 16:03:00,
2013-07-26 12:22:00,80.0,61.0,30.05,South,178,2.0,6.0,53,0.00,,,0.00,,2013-07-26 16:22:00,
2013-07-26 12:32:00,80.0,61.0,30.05,North,0,0.0,2.0,52,0.00,,,0.00,,2013-07-26 16:32:00,
2013-07-26 12:43:00,80.0,62.0,30.04,North,0,0.0,3.0,55,0.00,,,0.00,,2013-07-26 16:43:00,
2013-07-26 12:54:00,80.0,62.0,30.04,North,0,0.0,3.0,55,0.00,,,0.00,,2013-07-26 16:54:00,
2013-07-26 13:33:00,82.0,65.0,30.05,North,0,0.0,2.0,56,0.00,,,0.00,,2013-07-26 17:33:00,
2013-07-26 13:43:00,82.0,65.0,30.05,North,0,0.0,2.0,56,0.00,,,0.00,,2013-07-26 17:43:00,
2013-07-26 13:53:00,82.0,64.0,30.04,North,0,0.0,1.0,54,0.00,,,0.00,,2013-07-26 17:53:00,
2013-07-26 14:23:00,82.0,64.0,30.04,North,0,0.0,3.0,55,0.00,,,0.00,,2013-07-26 18:23:00,
2013-07-26 14:33:00,82.0,65.0,30.03,SSE,164,1.0,4.0,56,0.00,,,0.00,,2013-07-26 18:33:00,
2013-07-26 14:44:00,82.0,63.0,30.03,North,0,0.0,3.0,53,0.00,,,0.00,,2013-07-26 18:44:00,
2013-07-26 14:52:00,83.0,66.0,30.03,North,0,0.0,3.0,57,0.00,,,0.00,,2013-07-26 18:52:00,
2013-07-26 15:03:00,83.0,66.0,30.03,North,0,0.0,3.0,57,0.00,,,0.00,,2013-07-26 19:03:00,
2013-07-26 15:12:00,83.0,66.0,30.03,North,0,0.0,3.0,57,0.00,,,0.00,,2013-07-26 19:12:00,
2013-07-26 15:22:00,84.0,65.0,30.02,North,0,0.0,2.0,53,0.00,,,0.00,,2013-07-26 19:22:00,
2013-07-26 15:32:00,84.0,65.0,30.02,North,0,0.0,2.0,53,0.00,,,0.00,,2013-07-26 19:32:00,
2013-07-26 15:43:00,84.0,65.0,30.01,North,0,0.0,5.0,53,0.00,,,0.00,,2013-07-26 19:43:00,
2013-07-26 15:52:00,84.0,65.0,30.01,North,0,0.0,5.0,53,0.00,,,0.00,,2013-07-26 19:52:00,
2013-07-26 16:02:00,83.0,67.0,30.01,North,0,0.0,4.0,59,0.00,,,0.00,,2013-07-26 20:02:00,
2013-07-26 16:22:00,83.0,66.0,30.01,North,0,0.0,2.0,57,0.00,,,0.00,,2013-07-26 20:22:00,
2013-07-26 16:32:00,83.0,66.0,30.01,North,0,0.0,2.0,57,0.00,,,0.00,,2013-07-26 20:32:00,
2013-07-26 16:43:00,84.0,67.0,30.00,North,0,0.0,2.0,56,0.00,,,0.00,,2013-07-26 20:43:00,
2013-07-26 16:53:00,84.0,67.0,30.00,North,0,0.0,2.0,56,0.00,,,0.00,,2013-07-26 20:53:00,
2013-07-26 17:02:00,84.0,67.0,30.00,North,0,0.0,2.0,56,0.00,,,0.00,,2013-07-26 21:02:00,
2013-07-26 17:32:00,83.0,66.0,30.00,SSE,152,1.0,6.0,56,0.00,,,0.00,,2013-07-26 21:32:00,
2013-07-26 17:43:00,83.0,69.0,29.99,North,0,0.0,2.0,63,0.00,,,0.00,,2013-07-26 21:43:00,
2013-07-26 17:53:00,83.0,69.0,29.99,North,0,0.0,2.0,63,0.00,,,0.00,,2013-07-26 21:53:00,
2013-07-26 18:12:00,83.0,66.0,29.98,North,0,0.0,2.0,56,0.00,,,0.00,,2013-07-26 22:12:00,
2013-07-26 18:33:00,83.0,70.0,29.98,North,0,0.0,1.0,65,0.00,,,0.00,,2013-07-26 22:33:00,
2013-07-26 18:43:00,83.0,70.0,29.98,North,0,0.0,1.0,65,0.00,,,0.00,,2013-07-26 22:43:00,
2013-07-26 18:53:00,81.0,69.0,29.98,North,0,0.0,2.0,66,0.00,,,0.00,,2013-07-26 22:53:00,
2013-07-26 19:22:00,80.0,70.0,29.98,North,0,0.0,0.0,72,0.00,,,0.00,,2013-07-26 23:22:00,
2013-07-26 19:32:00,79.0,70.0,29.98,North,0,0.0,1.0,75,0.00,,,0.00,,2013-07-26 23:32:00,
2013-07-26 19:43:00,79.0,70.0,29.98,North,0,0.0,1.0,75,0.00,,,0.00,,2013-07-26 23:43:00,
2013-07-26 19:53:00,79.0,70.0,29.98,North,0,0.0,1.0,75,0.00,,,0.00,,2013-07-26 23:53:00,
2013-07-26 20:22:00,77.0,70.0,29.99,North,0,0.0,0.0,80,0.00,,,0.00,,2013-07-27 00:22:00,
2013-07-26 20:32:00,75.0,69.0,29.99,North,0,0.0,0.0,83,0.00,,,0.00,,2013-07-27 00:32:00,
2013-07-26 20:43:00,75.0,69.0,29.99,North,0,0.0,0.0,83,0.00,,,0.00,,2013-07-27 00:43:00,
2013-07-26 20:53:00,75.0,70.0,29.98,North,0,0.0,0.0,84,0.00,,,0.00,,2013-07-27 00:53:00,
2013-07-26 21:02:00,74.0,70.0,29.98,North,0,0.0,0.0,86,0.00,,,0.00,,2013-07-27 01:02:00,
2013-07-26 21:12:00,73.0,69.0,29.98,North,0,0.0,0.0,87,0.00,,,0.00,,2013-07-27 01:12:00,
2013-07-26 21:22:00,72.0,68.0,29.99,North,0,0.0,0.0,88,0.00,,,0.00,,2013-07-27 01:22:00,
2013-07-26 21:32:00,72.0,68.0,29.99,North,0,0.0,0.0,88,0.00,,,0.00,,2013-07-27 01:32:00,
2013-07-26 21:43:00,72.0,69.0,29.99,North,0,0.0,0.0,89,0.00,,,0.00,,2013-07-27 01:43:00,
2013-07-26 21:53:00,71.0,68.0,29.99,North,0,0.0,0.0,90,0.00,,,0.00,,2013-07-27 01:53:00,
2013-07-26 22:02:00,71.0,68.0,29.99,North,0,0.0,0.0,90,0.00,,,0.00,,2013-07-27 02:02:00,
2013-07-26 22:12:00,71.0,68.0,29.99,North,0,0.0,0.0,90,0.00,,,0.00,,2013-07-27 02:12:00,
2013-07-26 22:22:00,71.0,68.0,29.99,North,0,0.0,0.0,90,0.00,,,0.00,,2013-07-27 02:22:00,
2013-07-26 22:32:00,70.0,68.0,30.00,North,0,0.0,0.0,92,0.00,,,0.00,,2013-07-27 02:32:00,
2013-07-26 22:43:00,69.0,67.0,30.00,North,0,0.0,0.0,93,0.00,,,0.00,,2013-07-27 02:43:00,
2013-07-26 22:53:00,69.0,67.0,30.00,North,0,0.0,0.0,93,0.00,,,0.00,,2013-07-27 02:53:00,
2013-07-26 23:03:00,69.0,67.0,30.00,North,0,0.0,0.0,93,0.00,,,0.00,,2013-07-27 03:03:00,
2013-07-26 23:12:00,69.0,67.0,30.00,North,0,0.0,0.0,94,0.00,,,0.00,,2013-07-27 03:12:00,
2013-07-26 23:22:00,69.0,67.0,30.00,North,0,0.0,0.0,94,0.00,,,0.00,,2013-07-27 03:22:00,
2013-07-26 23:33:00,69.0,67.0,30.00,North,0,0.0,0.0,94,0.00,,,0.00,,2013-07-27 03:33:00,
2013-07-26 23:44:00,68.0,66.0,30.01,North,0,0.0,0.0,94,0.00,,,0.00,,2013-07-27 03:44:00,
2013-07-26 23:52:00,68.0,66.0,30.01,North,0,0.0,0.0,94,0.00,,,0.00,,2013-07-27 03:52:00,